Tracking 29489 objects as of 9-Sep-2024
HD Live streaming from Space Station
objects crossing your sky now

PSLV R/B

Track PSLV R/B now!
10-day predictions


NORAD ID: 41242
Int'l Code: 2016-003B
Perigee: 314.4 km
Apogee: 20,464.7 km
Inclination: 19.1 °
Period: 359.9 minutes
Semi major axis: 16760 km
RCS: Unknown
Launch date: January 20, 2016
Source: India (IND)
Launch site: SRIHARIKOTA (SRI)

Note: This is a ROCKET BODY
Your satellite tracking list
Your tracking list is empty




NASA's NSSDC Master Catalog

Two Line Element Set (TLE):
1 41242U 16003B   24253.21885450  .00008639  00000-0  26349-2 0  9994
2 41242  19.1316 223.5244 6011206 287.7256  17.8736  4.00101842124729
Source of the keplerian elements: AFSPC